Ana Sayfa
METAR-TAF:

METAR-TAF

Havaalanları :

Jim Hogg County Airport

Hebbronville, Teksas, Amerika Birleşik Devletleri

Enlem: 27-20N, Boylam: 098-44W, yükseklik: 202 m

Güncel hava durumu gözlemi

Rapor saat 03:50 UTC de 36 dakika önce yapıldı.
Sakin rüzgar
Sıcaklık 15°C
Nem 55%
Basınç 1025 hPa
Görüş mesafesi: 16.1 km
Açık gökyüzü

METAR: KHBV 070350Z AUTO 00000KT 10SM CLR 15/06 A3026 RMK AO2 T01540055

Saat: 22:26 (04:26 UTC)


TAF: eksik

4.000'den fazla havaalanı için hava durumu gözlemleri ve tahminleri (METAR ve TAF raporları).

Kullanılabilir istasyonlar harita üzerinde sarı ve kırmızı noktalarla gösterilir.

İstasyonun adını görmek için fareyi noktanın üzerinde gezdirin.

Sonrasında hava gözlem ve tahminlerini görmek için tıklayın.

Haritayı değiştirmek için: yaklaştırmak için siyah artı işaretli yeşil düğmeye ve uzaklaştırmak için de eksi işaretli düğmeye hızla tıklayın; bitişik haritalar için yeşil okları kullanın.


METAR-TAF: